Wind_Speed
30 29 28 29 26 22 20 18 18 17 15 15 14 14 14 14 13 12 10 8 9 9 10 10 10 9 9 9 10 11 11 11 15 21 19 19 19 21 21 19 19 19 19
31 29 27 27 29 27 24 22 19 16 17 16 15 15 15 16 15 14 13 12 12 12 12 12 12 11 11 11 12 12 13 14 18 21 23 22 21 20 20 21 20 19 19
30 31 29 27 28 29 27 25 21 18 17 17 16 17 17 16 15 15 14 14 15 15 14 14 15 13 14 14 14 15 15 17 18 23 26 24 24 23 21 20 19 19 17
30 30 30 30 29 28 27 26 25 22 20 19 17 17 17 17 17 17 16 15 15 17 17 16 16 16 17 17 17 16 17 18 19 22 25 25 24 24 22 20 20 19 20
28 29 30 29 28 26 25 26 26 25 24 23 20 20 19 19 20 20 19 19 18 18 18 19 20 20 22 22 21 20 19 22 24 24 26 27 27 25 23 26 24 23 18
22 26 25 25 26 27 26 25 26 27 26 24 24 25 25 25 25 24 24 23 21 20 21 21 22 23 24 26 27 27 28 28 28 26 28 28 27 27 26 25 25 22 15
19 20 21 23 25 25 25 26 27 27 26 27 27 27 28 29 30 30 30 27 27 27 27 27 28 28 27 27 28 28 30 30 32 32 31 32 30 26 23 22 22 19 17
17 18 17 18 21 20 20 23 21 21 23 25 25 26 27 29 32 33 35 34 31 31 31 31 31 32 32 33 32 30 31 31 30 28 28 30 27 24 22 20 18 14 15
11 9 11 15 17 17 19 17 15 16 17 21 22 24 26 27 28 30 31 27 28 29 29 29 30 31 32 34 31 30 30 30 30 31 32 34 32 31 33 26 21 17 13
2 8 3 11 6 14 16 12 16 18 19 21 22 21 23 25 24 27 28 26 26 27 27 28 30 32 32 32 31 27 27 28 27 27 25 24 22 23 21 22 24 21 12
4 2 9 10 9 13 11 12 14 17 19 19 19 19 22 23 23 26 29 26 26 25 27 27 28 28 28 28 28 26 27 25 25 26 26 23 21 20 16 20 20 18 15
5 2 1 2 1 10 7 8 10 12 15 17 18 21 22 22 24 27 30 31 28 26 28 26 24 22 20 23 25 29 30 28 24 25 24 24 25 22 23 19 17 15 17
9 7 7 5 3 6 2 1 4 5 7 12 13 14 15 16 17 18 20 24 25 28 27 26 26 29 30 29 29 31 29 26 24 24 23 24 22 22 16 14 13 15 16
9 9 6 3 3 7 5 4 4 4 5 8 8 9 9 12 14 11 14 12 15 16 19 24 27 28 28 28 28 23 24 23 22 23 23 20 17 14 10 13 12 11 6
8 9 10 9 11 9 9 8 8 6 8 4 7 8 8 9 9 15 18 19 18 18 17 13 17 17 14 16 19 21 21 19 17 20 18 14 13 9 9 12 12 11 10
10 10 11 13 13 11 11 8 8 8 8 4 9 9 9 12 15 16 16 17 20 22 22 18 21 19 17 16 18 22 20 17 18 16 15 14 14 11 10 11 13 14 15
6 8 14 12 11 13 12 11 11 9 10 9 13 15 15 14 13 12 12 14 15 13 10 14 16 17 18 19 22 26 24 22 20 17 14 15 14 11 12 12 14 13 9
6 3 3 4 9 10 12 14 10 10 11 9 8 14 16 15 12 14 16 12 6 6 5 7 9 12 16 18 21 21 21 20 18 16 13 12 11 10 10 11 14 13 11
4 2 2 2 4 3 5 9 11 10 10 11 10 11 17 17 15 17 15 12 9 10 11 10 10 11 16 17 17 18 21 23 20 12 13 14 11 11 10 10 12 15 14
5 6 5 4 5 4 6 3 7 6 11 13 11 11 14 14 12 12 12 11 11 12 12 11 12 11 12 14 16 16 18 19 18 18 16 15 11 11 12 12 12 12 14
6 6 7 7 6 6 6 7 7 7 8 10 11 7 15 8 8 8 8 8 9 10 11 13 13 12 12 11 13 12 10 11 10 9 10 10 10 10 12 12 11 12 12
8 7 8 9 6 6 5 8 8 8 9 9 10 9 10 9 7 7 7 7 7 8 11 11 12 14 14 13 14 13 12 11 9 7 6 5 6 8 9 10 11 12 13
10 9 10 10 8 8 10 9 9 9 9 9 9 9 9 9 10 9 9 7 7 7 8 10 11 12 13 12 11 13 15 15 12 8 8 6 4 4 6 7 10 11 12
9 9 9 9 8 8 11 10 11 9 10 11 10 10 10 10 10 9 9 8 8 7 7 7 8 10 11 13 13 13 13 15 14 10 7 7 5 5 4 6 7 9 10
10 7 10 9 10 10 10 11 13 12 12 12 12 11 11 11 11 10 9 9 8 8 8 7 7 8 9 11 13 14 13 13 15 13 10 8 7 6 6 6 7 8 10
10 11 10 9 10 11 13 13 14 14 15 15 14 14 14 13 12 11 10 9 9 9 8 8 8 9 9 8 10 13 15 15 13 12 13 9 9 8 7 6 6 8 9
Wind_Direction
202 204 206 208 209 208 210 210 215 216 211 210 213 216 218 218 221 227 235 235 233 235 232 232 237 241 249 252 253 261 270 275 281 294 303 302 298 294 294 298 298 295 294
196 200 206 208 209 212 214 213 214 216 217 212 217 220 223 227 226 227 237 242 238 240 242 243 246 247 248 260 262 263 274 282 286 294 298 300 296 293 292 296 299 298 297
199 201 204 207 210 214 215 214 213 212 214 221 222 224 228 229 235 242 244 247 246 246 247 246 249 249 250 257 262 272 276 278 280 285 295 296 298 299 296 294 294 292 290
204 206 203 207 212 215 214 214 214 212 216 216 220 224 228 232 236 242 247 252 252 250 251 252 252 252 252 255 258 263 269 271 277 279 286 292 294 295 283 278 289 297 304
208 209 210 203 211 216 215 216 219 217 217 222 225 227 231 237 242 242 244 248 251 253 254 255 256 256 255 254 262 267 272 272 277 283 286 289 289 292 302 300 296 299 299
210 215 214 210 209 211 214 213 212 219 224 229 231 235 237 240 245 248 247 252 256 259 261 263 264 267 268 271 273 274 270 269 273 277 280 281 284 284 292 296 303 304 301
211 217 222 220 218 219 216 213 213 218 225 228 233 235 238 240 245 246 250 252 258 261 263 265 268 268 270 270 272 275 274 270 266 267 270 271 280 285 294 293 289 287 275
203 205 216 228 235 229 232 227 229 226 228 231 232 237 239 241 245 249 253 256 257 260 261 262 264 267 266 266 268 271 270 272 274 269 256 265 273 280 281 281 283 278 273
215 211 213 228 236 239 231 230 229 233 239 244 243 242 242 245 246 249 254 252 255 259 261 261 261 263 264 265 266 269 273 274 276 276 274 272 273 275 271 272 273 265 263
108 151 345 266 269 245 239 240 239 239 241 243 247 251 254 252 253 257 254 248 251 253 256 259 262 259 260 262 263 265 266 270 277 282 280 284 281 277 275 269 258 258 242
31 25 191 236 250 251 237 237 241 243 247 249 251 251 254 255 259 259 255 245 248 253 255 258 261 263 263 265 269 260 260 271 277 279 279 277 275 271 268 269 262 252 257
97 98 164 280 196 239 208 217 236 252 259 252 257 258 257 255 257 258 259 257 250 252 258 262 267 278 276 266 268 271 275 278 272 272 275 273 274 275 278 273 243 252 247
53 63 56 34 2 293 292 225 237 262 310 280 260 261 265 263 269 274 264 271 268 256 257 263 265 260 267 276 273 272 273 265 263 267 266 265 267 277 268 263 246 245 243
51 39 37 62 49 19 357 339 14 337 347 322 323 327 314 282 274 279 278 287 281 265 265 260 261 262 260 257 258 260 265 260 260 267 268 266 271 248 257 256 243 237 216
60 53 22 34 39 16 15 8 27 360 354 12 346 331 325 316 308 305 297 295 288 283 285 274 276 270 260 262 264 264 264 266 259 264 259 250 253 241 240 246 235 215 196
20 38 34 15 20 14 12 16 15 8 352 325 350 341 332 314 310 305 299 293 295 293 284 270 263 259 255 269 269 273 269 254 259 257 243 243 253 252 236 231 227 217 209
62 41 30 9 12 359 352 351 358 8 0 355 358 356 357 332 329 315 306 312 313 307 284 287 279 283 285 285 285 281 276 268 268 254 244 248 255 251 225 224 220 213 201
299 321 75 28 5 352 346 333 344 348 341 352 349 348 340 346 344 339 337 343 326 352 348 321 311 302 299 297 294 301 297 274 267 259 246 249 263 249 233 216 218 204 197
289 341 28 347 256 269 316 324 329 337 338 330 347 349 341 354 5 359 14 23 7 352 349 335 317 311 308 306 302 296 281 274 274 263 256 226 219 234 227 217 212 211 207
307 315 330 314 324 297 280 284 297 337 332 326 331 337 348 349 353 357 5 9 5 358 347 332 325 326 322 320 309 300 297 286 272 263 250 244 241 208 217 209 205 203 201
239 218 241 249 242 256 282 296 306 318 298 302 314 334 346 340 340 346 354 4 4 354 345 340 334 340 337 336 334 326 323 320 308 281 258 240 220 208 217 211 202 203 197
255 256 250 257 262 267 271 284 275 278 281 288 298 299 328 305 328 344 347 354 358 354 349 343 346 346 355 354 351 354 349 342 341 340 330 286 239 221 207 192 187 191 192
259 261 259 254 256 275 274 261 269 278 282 283 282 290 297 308 315 330 334 344 347 356 356 354 352 349 350 354 357 353 351 350 341 336 339 319 275 230 202 193 191 185 191
261 261 260 262 264 278 282 276 281 269 271 281 290 293 295 302 310 319 319 327 328 338 336 342 342 342 347 347 352 357 352 344 342 328 307 313 289 257 213 193 194 197 197
278 280 268 259 264 270 278 275 282 284 280 282 285 285 289 291 296 301 310 314 311 310 310 320 325 326 333 340 344 351 355 349 338 334 320 292 296 261 235 223 211 207 205
287 281 272 271 273 271 272 274 276 281 285 285 285 287 287 286 285 288 291 293 292 298 301 307 309 315 318 326 335 344 346 354 344 336 326 320 307 293 270 244 230 219 212
Height
811 817 821 826 831 835 838 841 845 847 848 851 853 854 856 857 859 860 860 860 860 861 861 861 861 861 860 859 859 859 856 854 850 844 842 839 837 835 832 829 825 822 818
804 811 816 821 826 829 832 835 839 842 845 846 849 851 852 854 855 855 856 856 857 857 857 858 858 857 857 857 856 855 853 851 849 842 839 836 832 829 827 825 821 818 814
799 804 810 815 819 822 826 830 833 837 839 843 845 847 848 850 851 851 852 852 852 853 853 853 853 853 853 852 851 850 847 845 843 838 832 830 827 825 822 820 817 813 808
794 799 802 807 812 816 820 824 828 830 834 836 839 841 843 845 845 846 847 848 848 848 848 848 848 848 847 847 846 844 843 841 838 835 829 824 822 819 815 811 807 804 802
789 793 797 800 805 811 814 817 822 824 826 829 832 834 836 838 839 840 841 842 842 842 842 842 841 841 841 841 840 838 837 835 831 827 823 819 814 810 808 807 803 799 797
785 790 794 797 800 803 807 810 813 817 820 823 825 826 828 829 831 833 835 836 835 835 835 835 835 834 833 832 832 832 832 830 826 824 818 813 809 808 804 802 799 796 795
782 787 791 794 797 799 801 802 803 807 812 814 817 818 819 820 822 824 826 828 829 828 828 827 827 825 825 825 823 822 821 820 819 819 815 809 806 805 803 800 797 794 792
777 780 786 791 796 796 797 798 801 803 805 807 808 810 810 810 812 815 817 818 820 819 819 818 818 817 817 817 816 816 813 812 810 808 804 802 801 801 799 796 792 790 788
778 779 782 787 789 792 794 795 797 799 800 803 803 802 802 802 804 806 809 811 811 810 809 808 808 808 807 807 809 808 806 804 802 800 798 795 794 793 792 791 788 786 783
780 774 770 786 784 789 791 791 794 794 794 796 795 796 797 797 797 798 800 803 802 800 800 799 798 798 798 800 801 801 799 796 794 792 790 788 785 783 783 782 782 779 778
779 777 775 781 779 788 786 788 790 789 789 789 788 788 791 791 791 791 791 794 794 792 791 790 789 789 789 791 792 792 791 791 789 786 784 782 779 778 776 774 774 774 774
784 784 785 786 771 776 781 778 782 783 784 783 781 782 782 783 783 784 784 785 786 786 784 782 782 783 782 782 783 783 783 783 782 779 778 775 773 772 770 769 767 769 769
783 785 784 782 781 785 781 780 780 779 779 777 778 776 778 778 778 778 777 777 776 778 777 777 776 774 775 776 775 774 774 774 773 772 770 769 767 766 764 762 763 764 766
782 783 784 786 785 780 779 780 777 781 779 780 779 777 774 774 775 773 773 771 770 769 769 767 767 766 766 767 767 766 765 765 764 762 761 762 762 761 760 760 761 761 765
781 782 784 780 778 781 780 779 776 780 778 777 779 778 776 776 774 772 769 768 768 767 765 764 762 760 762 761 758 757 757 757 756 757 756 756 758 757 757 756 757 758 760
783 781 780 778 777 781 781 781 780 780 781 779 778 777 774 773 769 768 765 765 763 759 757 757 755 753 753 753 752 752 750 751 750 749 749 750 751 751 752 751 752 753 755
787 784 775 782 782 784 785 783 779 778 777 777 775 774 773 770 768 766 761 759 756 753 752 750 749 747 745 745 747 747 744 744 743 743 744 744 745 748 747 746 747 750 753
786 782 779 783 783 786 787 787 781 779 780 776 775 775 772 769 767 763 757 755 754 754 753 750 748 746 745 744 743 743 740 738 738 738 736 737 740 743 743 743 744 746 749
787 782 779 778 783 783 785 787 783 781 779 780 774 774 773 767 765 763 759 759 758 758 754 753 750 745 744 742 740 738 738 736 734 732 730 728 727 736 738 739 741 743 745
782 782 781 781 781 782 785 781 783 776 779 779 777 777 771 770 768 766 763 761 759 757 755 755 751 748 745 743 740 737 735 733 730 728 726 726 723 726 732 734 736 739 741
782 782 785 784 783 783 783 779 776 775 778 780 776 774 773 772 770 768 764 760 758 758 756 755 753 748 744 742 740 738 734 732 728 725 724 722 721 723 727 729 731 734 737
781 780 779 780 780 780 778 779 779 777 776 775 774 773 772 772 767 765 764 760 757 755 755 754 750 749 745 741 739 735 732 731 729 726 724 722 721 723 724 724 726 730 732
778 778 777 776 775 778 778 775 775 776 774 773 771 771 770 768 765 762 761 759 757 754 752 751 750 749 746 744 739 736 733 730 728 727 726 724 724 723 722 723 725 726 728
775 774 773 771 771 772 774 773 773 772 773 770 768 766 765 764 761 759 759 758 757 754 754 752 750 749 747 745 742 737 733 731 729 726 725 724 723 723 722 722 723 724 726
773 771 771 770 770 770 769 770 770 768 767 766 764 763 761 760 759 757 755 755 755 755 755 752 751 751 749 745 743 739 733 730 730 727 724 723 722 721 721 721 721 723 725
772 771 771 769 768 768 768 767 767 767 766 764 761 759 757 756 754 754 753 754 754 753 752 750 750 750 749 745 742 739 736 730 728 727 725 722 720 719 719 718 719 720 721